Location: Palomar Mountain Lodge
(33.3110°N, 116.8495°W)
Time: 00:32:43
(UTC-07:00)

Cosmos 1386 Rocket - Pass Details

Date: 13 December 2025
Orbit: 928 x 1005 km, 83.0° (Epoch: 21 April)

Event Time Altitude Azimuth Distance (km) Brightness Sun altitude
Rises 18:30:35 0° 356° (N) 3,617 7.4 -22.2°
Reaches altitude 10° 18:33:04 10° 358° (N) 2,679 6.7 -22.7°
Maximum altitude 18:39:12 73° 83° (E) 1,005 4.3 -24.0°
Drops below altitude 10° 18:45:25 10° 169° (SSE) 2,719 6.8 -25.2°
Sets 18:47:57 0° 171° (S) 3,674 7.6 -25.8°
